Weather observations for the past three days for
Castroville Municipal Airport
Imperial (Metric)
Date Time (cdt) Wind (mph) Vis. (mi.) Weather Sky Cond. Temperature (ºF) Relative Humidity Wind Chill (°F) Heat Index (°F) Pressure Precipitation (in)
Air Dwpt 6 hour altimeter (in) sea level (mb) 1 hr 3 hr 6 hr
Max. Min.
17 00:55 SE 6 10.00 Mostly Cloudy BKN025 80.8 68.2 97.3 80.8 66% 84 29.87 0.0
17 00:35 SE 8 10.00 Partly Cloudy SCT025 81.5 68 64% 84 29.86 0.0
17 00:15 SE 12 G 16 10.00 Mostly Cloudy BKN027 BKN031 82 68 63% 85 29.87 0.0
16 23:55 SE 12 10.00 Overcast OVC027 82.8 68.2 62% 86 29.87 0.0
16 23:35 SE 7 10.00 Mostly Cloudy BKN027 BKN032 82.9 68.2 61% 86 29.86 0.0
16 23:15 SE 14 G 20 10.00 Partly Cloudy SCT029 83.8 67.6 58% 87 29.85 0.0
16 22:55 SE 18 G 24 10.00 Fair CLR 84.4 67.3 57% 87 29.85 0.0
16 22:35 SE 12 G 21 10.00 Fair CLR 85.3 66.9 54% 88 29.83 0.0
16 22:15 SE 12 G 20 10.00 Fair CLR 86.2 65.3 50% 88 29.82 0.0
16 21:55 SE 14 G 23 10.00 Fair CLR 87.1 64.2 47% 88 29.81 0.0
16 21:35 SE 16 G 28 10.00 Fair CLR 88 63.7 44% 89 29.8 0.0
16 21:15 SE 16 G 22 10.00 Fair CLR 88.7 63.7 43% 90 29.78 0.0
16 20:55 SE 16 G 22 10.00 Fair CLR 89.6 63.1 41% 91 29.77 0.0
16 20:35 SE 15 G 24 10.00 Fair CLR 90.3 63.3 41% 91 29.77 0.0
16 20:15 SE 13 G 25 7.00 Partly Cloudy SCT070 91.4 63.1 39% 92 29.76 0.0
16 19:55 SE 15 G 23 10.00 Partly Cloudy SCT080 92.5 62.8 37% 93 29.75 0.0
16 19:35 SE 15 G 22 7.00 Partly Cloudy SCT080 94.1 61 33% 94 29.75 0.0
16 19:15 SE 13 G 20 10.00 Partly Cloudy SCT080 96.4 58.8 29% 96 29.75 0.0
16 18:55 SE 12 10.00 Fair CLR 97.2 55.6 97.9 91.2 25% 96 29.75 0.0
16 18:35 E 10 7.00 Fair CLR 97.7 55.4 24% 96 29.75 0.0
16 18:15 SE 10 7.00 Partly Cloudy SCT080 97.3 54.5 24% 95 29.76 0.0
16 17:55 SE 8 7.00 Partly Cloudy SCT080 97.7 56.3 25% 96 29.76 0.0
16 17:35 S 9 10.00 Partly Cloudy SCT075 97.9 55.8 24% 96 29.77 0.0
16 17:15 S 8 G 18 10.00 Fair CLR 97.3 56.7 26% 96 29.77 0.0
16 16:55 SE 12 G 17 7.00 Fair CLR 97.5 57 26% 96 29.78 0.0
16 16:35 SE 12 10.00 Fair CLR 97.3 57.6 27% 96 29.78 0.0
16 16:15 SE 8 G 17 7.00 Partly Cloudy SCT070 95.5 57.9 28% 95 29.79 0.0
16 15:55 E 6 G 16 10.00 Mostly Cloudy BKN070 95.7 58.5 29% 95 29.8 0.0
16 15:35 S 12 G 16 10.00 Mostly Cloudy BKN070 95.2 57.7 29% 94 29.81 0.0
16 15:15 S 10 7.00 Partly Cloudy SCT060 95.5 59.5 30% 95 29.82 0.0
16 14:55 S 6 G 17 7.00 Partly Cloudy SCT060 95.2 59.7 31% 95 29.82 0.0
16 14:35 SE 7 G 17 7.00 Partly Cloudy SCT060 94.8 60.4 32% 95 29.83 0.0
16 14:15 SE 13 10.00 Partly Cloudy SCT060 93.9 61.9 35% 95 29.84 0.0
16 13:55 SE 8 10.00 Partly Cloudy SCT050 93.6 61.7 35% 94 29.85 0.0
16 13:35 S 10 G 18 7.00 Partly Cloudy SCT050 93 61.9 36% 94 29.85 0.0
16 13:15 S 15 G 20 10.00 Partly Cloudy SCT046 SCT055 93.6 62.2 35% 94 29.85 0.0
16 12:55 SE 13 G 16 7.00 Partly Cloudy SCT044 SCT055 91 62.1 38% 92 29.86 0.0
16 12:35 S 12 G 18 7.00 Partly Cloudy SCT041 90.7 63.5 41% 92 29.87 0.0
16 12:15 S 10 G 20 7.00 Partly Cloudy SCT039 90 63.3 41% 91 29.89 0.0
16 11:55 SE 10 G 17 7.00 Partly Cloudy SCT037 SCT048 89.8 63.9 42% 91 29.89 0.0
16 11:35 S 6 0.00 NULL NULL 86.5 65.5 50% 89 29.91 0.0
16 09:40 Calm 0.00 NULL NULL 83.3 68.9 62% 87 0 0.0
16 09:20 S 9 0.00 NULL NULL 0 0 0% 29.91 0.0
16 08:40 Calm 0.00 NULL NULL 80.1 71.1 74% 84 0 0.0
16 08:15 Calm 10.00 Partly Cloudy SCT017 79.5 71.4 76% 83 29.92 0.0
16 07:55 E 3 10.00 Mostly Cloudy SCT017 SCT023 BKN085 78.8 71.6 79% 82 29.92 0.0
16 07:35 E 3 10.00 Overcast SCT013 BKN019 OVC085 78.3 71.8 81% 81 29.92 0.0
16 07:15 Calm 10.00 Overcast OVC013 77.9 71.8 82% 80 29.91 0.0
16 06:55 E 3 10.00 Overcast OVC013 77.9 72 80.2 77.4 82% 80 29.91 0.0
16 06:35 E 3 10.00 Overcast OVC013 77.5 71.6 82% 79 29.89 0.0
16 06:15 Calm 10.00 Overcast BKN013 OVC018 77.4 71.6 83% 79 29.89 0.0
16 05:55 SE 3 10.00 Overcast OVC013 77.5 71.6 82% 79 29.88 0.0
16 05:35 SE 3 10.00 Overcast OVC013 77.9 71.1 80% 80 29.87 0.0
16 05:15 E 3 10.00 Overcast OVC013 77.9 70.9 79% 80 29.87 0.0
16 04:55 SE 5 10.00 Overcast OVC013 77.9 70.7 79% 80 29.87 0.0
16 04:35 SE 5 10.00 Overcast OVC015 78.1 70.2 77% 80 29.86 0.0
16 04:15 SE 5 10.00 Overcast OVC015 78.3 69.8 75% 81 29.86 0.0
16 03:55 SE 6 10.00 Overcast OVC015 78.4 69.8 75% 81 29.87 0.0
16 03:35 SE 8 10.00 Overcast OVC015 78.8 69.4 73% 81 29.87 0.0
16 03:15 SE 7 10.00 Overcast OVC015 78.8 69.4 73% 81 29.88 0.0
16 02:55 SE 8 10.00 Overcast OVC017 79 69.1 72% 82 29.88 0.0
16 02:35 SE 9 10.00 Overcast OVC017 79.2 68.9 71% 82 29.89 0.0
16 02:15 SE 6 10.00 Overcast OVC019 79.3 68.4 69% 82 29.9 0.0
16 01:55 SE 8 10.00 Mostly Cloudy BKN019 79.5 68 68% 82 29.91 0.0
16 01:35 SE 9 10.00 Mostly Cloudy BKN019 79.7 67.6 67% 82 29.91 0.0
16 01:15 SE 7 10.00 Partly Cloudy SCT021 79.9 67.3 66% 82 29.91 0.0
16 00:55 SE 12 10.00 Fair CLR 80.2 66.6 96.1 80.2 63% 82 29.91 0.0
16 00:35 SE 9 10.00 Fair CLR 80.6 65.8 61% 83 29.9 0.0
16 00:15 SE 8 10.00 Fair CLR 81.3 65.3 58% 83 29.9 0.0
15 23:55 SE 12 G 16 10.00 Fair CLR 81.9 64.4 56% 83 29.9 0.0
15 23:35 SE 13 G 20 10.00 Fair CLR 82.6 63.9 53% 84 29.9 0.0
15 23:15 SE 9 G 20 10.00 Fair CLR 83.3 63.1 51% 84 29.89 0.0
15 22:55 SE 15 G 18 10.00 Fair CLR 84.2 62.8 49% 85 29.88 0.0
15 22:35 SE 13 G 20 10.00 Fair CLR 85.1 62.2 46% 86 29.87 0.0
15 22:15 SE 12 G 21 10.00 Fair CLR 86 62.2 45% 87 29.86 0.0
15 21:55 SE 13 G 18 10.00 Fair CLR 86.7 61.7 43% 87 29.85 0.0
15 21:35 SE 15 G 20 10.00 Fair CLR 87.4 62.1 43% 88 29.84 0.0
15 21:15 SE 14 G 20 10.00 Fair CLR 88.2 61.9 41% 89 29.83 0.0
15 20:55 SE 16 G 23 10.00 Partly Cloudy SCT080 88.7 62.1 41% 89 29.83 0.0
15 20:35 SE 12 G 23 7.00 Fair CLR 89.6 62.8 41% 90 29.82 0.0
15 20:15 SE 13 7.00 Fair CLR 90.9 63 40% 92 29.82 0.0
15 19:55 SE 13 7.00 Partly Cloudy SCT075 92.7 62.1 36% 93 29.81 0.0
15 19:35 SE 10 10.00 Partly Cloudy SCT065 SCT080 SCT095 93.6 61.5 34% 94 29.81 0.0
15 19:15 E 13 G 18 7.00 Partly Cloudy SCT065 SCT080 95.9 61.3 32% 96 29.8 0.0
15 18:55 SE 13 G 16 10.00 Partly Cloudy SCT070 96.3 59 97.2 91.2 29% 96 29.8 0.0
15 18:35 SE 12 7.00 Partly Cloudy SCT070 96.8 59.2 29% 96 29.8 0.0
15 18:15 SE 9 7.00 Fair CLR 96.4 59.5 29% 96 29.81 0.0
15 17:55 SE 7 10.00 Fair CLR 95.9 60.4 31% 96 29.81 0.0
15 17:35 SE 7 7.00 Partly Cloudy SCT060 95.5 61 32% 96 29.82 0.0
15 17:15 SE 8 10.00 Partly Cloudy SCT060 95.9 61.3 32% 96 29.82 0.0
15 16:55 SE 13 7.00 Partly Cloudy SCT060 94.6 61.7 34% 95 29.83 0.0
15 16:35 SE 6 7.00 Partly Cloudy SCT060 SCT075 94.1 61.7 34% 95 29.84 0.0
15 16:15 SE 10 7.00 Partly Cloudy SCT060 SCT070 95.9 62.4 33% 97 29.85 0.0
15 15:55 SE 8 10.00 Mostly Cloudy SCT060 BKN070 94.8 62.2 34% 96 29.85 0.0
15 15:35 S 12 G 17 7.00 Fair CLR 94.8 61.7 33% 95 29.86 0.0
15 15:15 S 9 10.00 Partly Cloudy SCT060 94.8 61.7 33% 95 29.87 0.0
15 14:55 SE 8 7.00 Partly Cloudy SCT060 94.8 61.7 33% 95 29.87 0.0
15 14:35 S 3 G 16 7.00 Partly Cloudy SCT050 93.9 61.7 34% 94 29.88 0.0
15 14:15 S 7 10.00 Partly Cloudy SCT050 93.4 61.2 34% 94 29.89 0.0
15 13:55 S 3 7.00 Mostly Cloudy BKN050 BKN060 91.8 61.9 37% 92 29.91 0.0
15 13:35 SE 5 10.00 Partly Cloudy SCT050 91.4 63.1 39% 92 29.91 0.0
15 13:15 SE 8 10.00 Partly Cloudy SCT055 92.5 61.5 36% 93 29.92 0.0
15 12:55 S 7 7.00 Partly Cloudy SCT044 91.4 61.7 37% 92 29.93 0.0
15 12:35 S 6 7.00 NULL NULL 90.3 62.6 40% 91 29.94 0.0
15 11:15 S 5 10.00 Mostly Cloudy SCT030 SCT042 BKN050 85.8 66.6 53% 88 29.96 0.0
15 10:55 S 7 10.00 Mostly Cloudy SCT028 SCT035 BKN060 84.7 67.1 56% 88 29.96 0.0
15 10:35 S 3 10.00 Partly Cloudy SCT028 SCT035 SCT060 83.8 67.3 58% 87 29.97 0.0
15 10:15 S 5 10.00 Fair CLR 83.1 68.4 61% 86 29.97 0.0
15 09:55 S 5 10.00 Partly Cloudy SCT055 84.2 68.5 59% 88 29.97 0.0
15 09:35 S 5 10.00 Mostly Cloudy SCT040 SCT046 BKN055 82.2 69.8 66% 86 29.98 0.0
15 09:15 S 6 10.00 Partly Cloudy SCT016 SCT025 SCT035 81.1 70.2 69% 85 29.99 0.0
15 08:55 Calm 10.00 Mostly Cloudy BKN012 80.1 71.6 75% 84 29.99 0.0
15 08:35 Calm 10.00 Mostly Cloudy BKN012 80.1 70.9 74% 84 29.98 0.0
15 08:15 SE 3 10.00 Mostly Cloudy BKN012 BKN018 80.1 71.2 75% 84 29.98 0.0
15 07:55 Calm 10.00 Partly Cloudy SCT012 SCT018 SCT022 79 71.4 78% 82 29.97 0.0
15 07:35 Calm 10.00 Partly Cloudy SCT011 SCT018 SCT024 78.1 71.6 81% 80 29.97 0.0
15 07:15 Calm 10.00 Overcast BKN011 BKN019 OVC025 77.2 71.6 83% 79 29.97 0.0
15 06:55 NE 3 10.00 Overcast BKN011 BKN014 OVC024 77 71.2 81.5 76.1 82% 78 29.96 0.0
15 06:35 Calm 10.00 Overcast BKN011 OVC020 77 70.9 81% 79 29.96 0.0
15 06:15 Calm 10.00 Overcast OVC011 77.2 70.9 81% 79 29.96 0.0
15 05:55 Calm 10.00 Overcast OVC013 76.5 70.7 82% 78 29.95 0.0
15 05:35 Calm 10.00 Overcast OVC013 76.1 70.7 83% 77 29.95 0.0
15 05:15 Calm 10.00 Mostly Cloudy BKN013 BKN017 76.6 70 80% 78 29.94 0.0
15 04:55 Calm 10.00 Overcast OVC013 76.1 70.2 82% 77 29.94 0.0
15 04:35 Calm 10.00 Mostly Cloudy BKN015 77 69.8 79% 79 29.94 0.0
15 04:15 Calm 10.00 Fair CLR 77.2 69.3 77% 79 29.94 0.0
15 03:55 Calm 10.00 Fair CLR 77.4 69.3 76% 79 29.94 0.0
15 03:35 Calm 10.00 Fair CLR 77.9 68.9 74% 80 29.94 0.0
15 03:15 SE 3 10.00 Fair CLR 78.3 68.5 72% 80 29.94 0.0
15 02:55 SE 3 10.00 Fair CLR 78.6 68 70% 81 29.95 0.0
15 02:35 SE 5 10.00 Fair CLR 79.2 67.5 68% 81 29.95 0.0
15 02:15 SE 5 10.00 Fair CLR 79.7 67.3 66% 82 29.95 0.0
15 01:55 SE 8 10.00 Fair CLR 80.2 67.1 64% 83 29.96 0.0
15 01:35 SE 8 10.00 Fair CLR 80.6 66.7 63% 83 29.96 0.0
15 01:15 SE 7 10.00 Fair CLR 81 66.9 62% 83 29.96 0.0
15 00:55 SE 7 10.00 Fair CLR 81.5 66.2 95.5 81.5 60% 84 29.96 0.0
15 00:35 SE 6 10.00 Fair CLR 82.4 63.5 53% 84 29.97 0.0
15 00:15 SE 7 10.00 Fair CLR 83.1 61.2 48% 84 29.96 0.0
14 23:55 SE 5 10.00 Fair CLR 83.8 59.9 44% 84 29.96 0.0
14 23:35 E 6 10.00 Fair CLR 84.4 59.9 44% 84 29.96 0.0
14 23:15 E 7 10.00 Fair CLR 85.5 59.7 42% 85 29.95 0.0
14 22:55 E 8 10.00 Fair CLR 86 60.1 42% 86 29.94 0.0
14 22:35 E 9 10.00 Fair CLR 86.2 60.3 42% 86 29.93 0.0
14 22:15 E 7 10.00 Fair CLR 86.9 59.9 40% 87 29.92 0.0
14 21:55 E 9 10.00 Partly Cloudy SCT085 87.4 59.7 39% 87 29.91 0.0
14 21:35 E 7 10.00 Fair CLR 88.3 59.5 38% 88 29.9 0.0
14 21:15 E 6 10.00 Fair CLR 89.2 59 36% 88 29.9 0.0
14 20:55 E 6 10.00 Fair CLR 89.8 58.6 35% 89 29.89 0.0
14 20:35 SE 3 7.00 Fair CLR 91 59.5 35% 90 29.88 0.0
14 20:15 SE 5 10.00 Fair CLR 92.3 59.4 33% 92 29.88 0.0
14 19:55 SE 7 10.00 Fair CLR 93.4 59 32% 93 29.87 0.0
14 19:35 E 7 7.00 Fair CLR 94.5 58.6 30% 94 29.87 0.0
14 19:15 E 6 10.00 Fair CLR 95.2 58.5 29% 94 29.87 0.0
14 18:55 E 5 7.00 Fair CLR 95.5 58.6 97 89.8 29% 95 29.87 0.0
14 18:35 E 8 10.00 Fair CLR 96.1 59.2 29% 96 29.87 0.0
14 18:15 SE 6 7.00 Fair CLR 95.5 59.4 30% 95 29.87 0.0
14 17:55 E 6 7.00 Fair CLR 96.8 59.9 29% 97 29.88 0.0
14 17:35 E 8 10.00 Fair CLR 96.4 59.2 29% 96 29.88 0.0
14 17:15 E 7 7.00 Fair CLR 96.3 59.7 30% 96 29.89 0.0
14 16:55 SE 5 7.00 Fair CLR 96.3 59 29% 96 29.9 0.0
14 16:35 E 6 7.00 Fair CLR 96.8 58.8 28% 96 29.9 0.0
14 16:15 SE 3 10.00 Fair CLR 95.9 58.5 29% 95 29.91 0.0
14 15:55 E 6 7.00 Fair CLR 95.7 59.5 30% 95 29.92 0.0
14 15:35 SE 5 10.00 Fair CLR 95.7 58.6 29% 95 29.92 0.0
14 15:15 NE 3 7.00 Partly Cloudy SCT060 95.4 59.9 31% 95 29.93 0.0
14 14:55 SE 6 10.00 Partly Cloudy SCT060 93.6 60.8 34% 94 29.94 0.0
14 14:35 Calm 10.00 Partly Cloudy SCT050 93.9 61.3 34% 94 29.94 0.0
14 14:15 Calm 10.00 Mostly Cloudy SCT050 BKN075 92.8 60.3 34% 93 29.95 0.0
14 13:55 E 7 7.00 Partly Cloudy SCT050 SCT060 SCT075 91.6 62.2 38% 92 29.96 0.0
14 13:35 Calm 10.00 Partly Cloudy SCT047 SCT055 92.1 63.3 38% 93 29.97 0.0
14 13:15 S 5 7.00 Partly Cloudy SCT047 SCT055 SCT065 91.4 63.1 39% 92 29.97 0.0
14 12:55 Calm 10.00 Mostly Cloudy SCT046 SCT065 BKN075 89.8 63.5 89.8 75.4 42% 91 29.98 0.0
14 12:35 S 5 7.00 Partly Cloudy SCT046 SCT050 SCT065 89.1 64 43% 90 29.98 0.0
14 12:15 SE 8 10.00 Partly Cloudy SCT039 SCT050 SCT065 88.7 64.4 45% 90 29.99 0.0
14 11:55 S 7 10.00 Mostly Cloudy SCT039 BKN065 87.4 64.8 47% 89 29.99 0.0
14 11:35 Calm 10.00 Overcast SCT036 BKN050 OVC060 85.8 66.2 52% 88 29.99 0.0
14 11:15 S 5 7.00 Mostly Cloudy BKN036 BKN042 BKN050 85.6 67.3 54% 89 29.99 0.0
14 10:55 Calm 10.00 Partly Cloudy SCT034 SCT050 85.1 66.4 54% 88 29.99 0.0
14 10:35 S 5 10.00 Partly Cloudy SCT033 SCT045 SCT055 84.9 66 53% 87 29.99 0.0
14 10:15 S 5 10.00 Mostly Cloudy SCT035 BKN043 84 66.4 55% 86 30 0.0
14 09:55 S 3 10.00 Mostly Cloudy SCT019 SCT025 BKN034 82.8 67.8 61% 86 30.01 0.0
14 09:35 Calm 10.00 Mostly Cloudy SCT017 BKN025 82.4 69.1 64% 86 30.01 0.0
14 09:15 SW 3 10.00 Mostly Cloudy SCT015 BKN026 82.2 70.7 68% 86 30 0.0
14 08:55 SE 3 10.00 Partly Cloudy SCT013 81.5 71.4 72% 86 30.01 0.0
14 08:35 Calm 10.00 Partly Cloudy SCT015 80.2 71.2 74% 84 30.01 0.0
14 08:15 Calm 10.00 Partly Cloudy SCT015 79.5 72 78% 83 30 0.0
14 07:55 E 3 10.00 Mostly Cloudy BKN015 BKN023 78.4 72.7 83% 81 30 0.0
14 07:35 Calm 10.00 Mostly Cloudy BKN015 76.8 73.8 90% 78 29.99 0.0
14 07:15 Calm 10.00 Partly Cloudy SCT017 75.6 73.4 93% 75 29.99 0.0
14 06:55 Calm 10.00 Mostly Cloudy BKN015 75.4 72.7 82.4 75.2 91% 75 29.98 0.0
14 06:35 Calm 10.00 Partly Cloudy SCT015 75.2 72.7 92% 74 29.98 0.0
14 06:15 Calm 10.00 Fair CLR 75.6 72.1 89% 75 29.97 0.0
14 05:55 Calm 10.00 Fair CLR 76.1 72.9 90% 76 29.96 0.0
14 05:35 Calm 10.00 Fair CLR 76.1 72 87% 77 29.96 0.0
14 05:15 Calm 10.00 Fair CLR 77 70.9 81% 79 29.96 0.0
14 04:55 Calm 10.00 Fair CLR 77.5 70.7 80% 79 29.95 0.0
14 04:35 SE 3 10.00 Fair CLR 77.9 70.5 78% 80 29.95 0.0
14 04:15 Calm 10.00 Fair CLR 77.9 70 77% 80 29.96 0.0
14 03:55 SE 3 10.00 Fair CLR 78.4 69.4 74% 81 29.95 0.0
14 03:35 Calm 10.00 Fair CLR 79 69.3 72% 82 29.95 0.0
14 03:15 Calm 10.00 Fair CLR 79.3 69.1 71% 82 29.95 0.0
14 02:55 Calm 10.00 Fair CLR 79.7 69.1 70% 82 29.95 0.0
14 02:35 SE 5 10.00 Fair CLR 80.2 68.9 68% 83 29.95 0.0
14 02:15 SE 5 10.00 Fair CLR 80.6 68.9 68% 84 29.95 0.0
14 01:55 SE 3 10.00 Partly Cloudy SCT045 81 68.9 67% 84 29.95 0.0
14 01:35 SE 3 10.00 Fair CLR 81.5 68.5 65% 85 29.95 0.0
Date Time (cdt) Wind (mph) Vis. (mi.) Weather Sky Cond. Air Dwpt Max. Min. Relative Humidity Wind Chill (°F) Heat Index (°F) altimeter (in) sea level (mb) 1 hr 3 hr 6 hr
6 hour
Temperature (ºF) Pressure Precipitation (in)